THEMIS E

Last updated on July 6, 2021, 3:27 p.m. UTC

1 30798U 07004E   21186.28624242 -.00000669  00000-0  00000+0 0  9997
2 30798  13.2722  13.9158 8360015 107.0901  11.3670  0.87843531 50017
UTC
Height (km)
Latitude
Longitude
Inclination
Orbital Period
UTC large
Height (km)
Speed (km/s)
/
Latitude / Longitude
Inclination (degrees)
Orbital Period (minutes)
Azimuth
Elevation
Range (km)
Doppler Factor
iOS Compass Heading
iOS Angle